Probability
0 0 0 0 0 0 0 0 0 0 0 0 0 0 0 0 0 0 0 0 0 0 0 0 0 0 0 0 0 0 0 0 0 0 0 0 0 0 0 0 0 0 0 0
0 0 0 0 0 0 0 0 0 0 0 0 0 0 0 0 0 0 0 0 0 0 0 0 0 0 0 0 0 0 0 0 0 0 0 0 0 0 0 0 0 0 0 0
0 0 0 0 0 0 0 0 0 0 0 0 0 0 0 0 0 0 0 0 0 0 0 0 0 0 0 0 0 0 0 0 0 0 0 0 0 0 0 0 0 0 0 0
0 0 0 0 0 0 0 0 0 0 0 0 0 0 0 0 0 0 0 0 0 0 0 0 0 0 0 0 0 0 0 0 0 0 0 0 0 0 0 0 0 0 0 0
0 0 0 0 0 0 0 0 0 0 0 0 0 0 0 0 0 0 0 0 0 0 0 0 0 0 0 0 0 0 0 0 0 0 0 0 0 0 0 0 0 0 0 0
0 0 0 0 0 0 0 0 0 0 0 0 0 0 0 0 0 0 0 0 0 0 0 0 0 0 0 0 0 0 0 0 0 0 0 0 0 0 0 0 0 0 0 0
0 0 0 0 0 0 0 0 0 0 0 0 0 0 0 0 0 0 0 0 0 0 0 0 0 0 0 0 0 0 0 0 0 0 0 0 0 0 0 0 0 0 0 0
0 0 0 0 0 0 0 0 0 0 0 0 0 0 0 0 0 0 0 0 0 0 0 0 0 0 0 0 0 0 0 0 0 0 0 0 0 0 0 0 0 0 0 0
0 0 0 0 0 0 0 0 0 0 0 0 0 0 0 0 0 0 0 0 0 0 0 0 0 0 0 0 0 0 0 0 0 0 0 0 0 0 0 0 0 0 0 0
0 0 0 0 0 0 0 0 0 0 0 0 0 0 0 0 0 0 0 0 0 0 0 0 0 0 0 0 0 0 0 0 0 0 0 0 0 0 0 0 0 0 0 0
0 0 0 0 0 0 0 0 0 0 0 0 0 0 0 0 0 0 0 0 0 0 0 0 0 0 0 0 0 0 0 0 0 0 0 0 0 0 0 0 0 0 0 0
0 0 0 0 0 0 0 0 0 0 0 0 0 0 0 0 0 0 0 0 0 0 0 0 0 0 0 0 0 0 0 0 0 0 0 0 0 0 0 0 0 0 0 0
0 0 0 0 0 0 0 0 0 0 0 0 0 0 0 0 0 0 0 0 0 0 0 0 0 0 0 0 0 0 0 0 0 0 0 0 0 0 0 0 0 0 0 0
0 0 0 0 0 0 0 0 0 0 0 0 0 0 0 0 0 0 0 0 0 0 0 0 0 0 0 0 0 0 0 0 0 0 0 0 0 0 0 0 0 0 0 0
0 0 0 0 0 0 0 0 0 0 0 0 0 0 0 0 0 0 0 0 0 0 0 0 0 0 0 0 0 0 0 0 0 0 0 0 0 0 0 0 0 0 0 0
0 0 0 0 0 0 0 0 0 0 0 0 0 0 0 0 0 0 0 0 0 0 0 0 0 0 0 0 0 0 0 0 0 0 0 0 0 0 0 0 0 0 0 0
0 0 0 0 0 0 0 0 0 0 0 0 0 0 0 0 0 0 0 0 0 0 0 0 0 0 0 0 0 0 0 0 0 0 0 0 0 0 0 0 0 0 0 0
0 0 0 0 0 0 0 0 0 0 0 0 0 0 0 0 0 0 0 0 0 0 0 0 0 0 0 0 0 0 0 0 0 0 0 0 0 0 0 0 0 0 0 0
0 0 0 0 0 0 0 0 0 0 0 0 0 0 0 0 0 0 0 0 0 0 0 0 0 0 0 0 0 0 0 0 0 0 0 0 0 0 0 0 0 0 0 0
0 0 0 0 0 0 0 0 0 0 0 0 0 0 0 0 0 0 0 0 0 0 0 0 0 0 0 0 0 0 0 0 0 0 0 0 0 0 0 0 0 0 0 0
0 0 0 0 0 0 0 0 0 0 0 0 0 0 0 0 0 0 0 0 0 0 0 0 0 0 0 0 0 0 0 0 0 0 0 0 0 0 0 0 0 0 0 0
0 0 0 0 0 0 0 0 0 0 0 0 0 0 0 0 0 0 0 0 0 0 0 0 0 0 0 0 0 0 0 0 0 0 0 0 0 0 0 0 0 0 0 0
0 0 0 0 0 0 0 0 0 0 0 0 0 0 0 0 0 0 0 0 0 0 0 0 0 0 0 0 0 0 0 0 0 0 0 0 0 0 0 0 0 0 0 0
0 0 0 0 0 0 0 0 0 0 0 0 0 0 0 0 0 0 0 0 0 0 0 0 0 0 0 0 0 0 0 0 0 0 0 0 0 0 0 0 0 0 0 0
0 0 0 0 0 0 0 0 0 0 0 0 0 0 0 0 0 0 0 0 0 0 0 0 0 0 0 0 0 0 0 0 0 0 0 0 0 0 0 0 0 0 0 0
0 0 0 0 0 0 0 0 0 0 0 0 0 0 0 0 0 0 0 0 0 0 0 0 0 0 0 0 0 0 0 0 0 0 0 0 0 0 0 0 0 0 0 0
0 0 0 0 0 0 0 0 0 0 0 0 0 0 0 0 0 0 0 0 0 0 0 0 0 0 0 0 0 0 0 0 0 0 0 0 0 0 0 0 0 0 0 0
Wind_Speed
7 7 5 6 8 8 10 10 9 9 9 7 5 4 3 2 1 1 1 1 2 2 2 2 2 2 2 2 2 2 2 2 2 2 2 2 2 2 2 2 1 1 1 1
6 7 7 9 10 10 11 11 12 12 12 6 5 3 2 1 1 0 0 1 2 2 2 2 2 2 2 2 2 2 1 2 2 2 2 2 2 2 2 2 2 1 1 1
5 4 5 10 9 9 8 7 8 12 10 5 4 3 2 1 1 0 1 1 2 2 2 2 2 2 2 3 3 2 2 2 3 2 2 2 2 2 2 2 2 2 1 1
3 2 10 8 3 7 9 8 7 5 3 3 2 2 2 1 1 1 2 2 2 2 3 3 2 2 2 2 2 2 2 2 3 3 3 2 2 2 2 2 2 2 1 1
3 6 10 6 2 2 4 5 3 4 3 2 1 2 1 3 3 2 2 2 2 3 3 3 2 2 2 2 2 3 3 3 3 3 3 3 2 2 2 2 2 2 2 2
5 6 8 4 1 1 1 5 1 1 2 1 1 2 2 2 4 4 4 3 3 3 4 3 3 3 2 2 2 3 3 3 3 3 2 2 2 2 2 2 2 2 2 2
8 8 8 2 1 1 4 4 2 2 1 1 1 2 1 2 3 3 3 3 3 3 3 3 4 3 2 2 3 4 4 4 3 3 3 2 2 2 2 2 2 2 2 2
6 8 9 1 1 3 2 2 2 2 2 2 2 1 1 1 2 2 3 3 3 3 3 4 4 3 3 3 4 4 4 3 3 3 3 2 2 2 2 1 1 1 2 2
6 6 0 2 1 1 1 1 2 1 1 1 1 1 1 1 1 2 2 3 3 3 3 4 4 3 3 4 4 4 3 3 3 3 3 3 2 2 2 1 1 1 2 2
4 4 2 1 0 1 1 1 2 2 1 1 1 1 1 0 1 2 2 2 2 2 2 3 4 3 3 4 4 3 3 3 3 3 3 3 2 2 2 1 1 2 2 2
5 4 2 3 2 1 1 1 2 2 1 1 1 1 1 0 1 1 1 2 2 2 2 3 3 3 3 3 3 3 3 3 3 2 2 3 2 2 2 2 2 2 2 2
6 3 3 3 1 1 1 1 1 1 1 1 1 1 1 1 0 1 1 2 2 2 2 3 3 3 3 2 2 2 2 2 2 2 2 2 2 3 4 4 5 5 5 4
4 3 2 2 1 1 2 1 1 1 1 1 1 1 1 1 1 1 1 1 2 2 2 3 3 3 2 2 2 1 2 2 2 2 2 2 2 2 3 4 5 5 6 7
1 1 2 2 1 0 0 0 1 1 0 0 0 1 0 1 1 1 1 2 2 2 2 2 2 3 2 2 2 2 2 2 2 2 2 2 2 2 2 3 3 3 4 7
2 2 2 1 1 1 1 1 1 1 1 0 0 0 0 1 2 2 2 2 2 2 2 2 3 4 2 1 2 2 2 2 2 2 2 2 2 2 2 2 3 3 3 4
1 0 1 1 2 1 1 1 2 3 2 1 1 1 2 2 2 3 2 1 2 3 3 3 4 4 2 2 2 2 2 3 2 2 2 2 2 2 2 2 3 3 3 3
2 2 2 3 3 3 3 3 3 3 2 3 3 2 1 1 2 3 3 2 3 4 4 4 5 4 3 2 2 2 2 2 2 2 2 2 2 2 3 3 3 3 4 5
3 3 3 4 4 4 4 3 3 3 3 3 2 1 2 2 4 4 4 3 3 5 5 4 5 4 3 3 2 2 2 2 2 2 2 3 3 3 3 3 4 4 4 4
2 2 2 3 3 3 3 3 3 3 2 2 2 3 3 4 4 4 3 3 4 5 5 3 5 3 2 3 3 2 2 3 3 3 3 3 3 3 3 3 4 4 4 4
1 1 2 2 2 2 3 2 2 2 2 2 2 3 3 4 3 3 3 5 5 4 3 3 3 3 3 4 4 2 3 3 4 3 3 3 4 4 4 4 4 4 4 4
2 2 2 2 2 2 2 2 2 3 3 2 3 4 5 4 3 3 3 5 5 3 3 4 3 3 3 3 3 3 3 4 4 4 4 4 4 4 4 4 5 5 5 5
2 2 2 2 2 3 2 2 3 3 3 3 3 3 4 4 4 4 5 6 5 3 3 3 3 4 4 4 3 4 4 4 4 4 4 4 4 5 5 5 5 5 5 5
2 2 3 3 3 3 3 2 3 3 4 4 4 4 5 5 3 4 5 3 3 5 4 4 6 7 7 4 4 4 4 5 5 5 5 5 5 5 5 6 6 6 6 6
2 2 2 2 1 2 3 3 2 3 3 4 4 5 4 4 4 4 4 4 5 5 4 5 8 8 7 4 4 4 4 5 5 5 5 5 5 5 6 6 6 6 6 7
2 2 2 2 2 3 3 2 2 2 2 3 3 4 3 3 4 4 4 5 6 6 5 6 9 8 5 4 4 5 5 5 5 5 5 5 6 6 6 6 6 6 6 7
2 2 2 2 3 2 2 2 2 2 2 3 3 3 2 2 3 4 4 5 5 6 5 5 5 5 4 4 5 5 5 5 6 6 6 6 6 7 6 7 8 7 7 7
2 2 2 2 2 2 2 2 3 3 3 3 4 4 3 3 3 4 4 4 4 4 4 4 4 4 4 5 5 5 5 5 5 6 6 6 6 6 7 8 7 7 7 7
Wind_Direction
255 274 272 256 248 231 224 230 237 253 259 271 282 280 262 244 217 140 103 73 51 28 16 9 16 11 15 8 15 18 27 35 26 19 21 24 15 8 17 14 8 5 33 47
261 261 266 266 256 241 239 241 247 262 268 277 286 294 293 273 161 135 24 19 19 17 11 8 6 354 356 355 2 14 18 14 18 22 24 22 10 10 16 12 9 16 13 11
261 273 287 260 238 230 231 228 229 246 260 281 283 285 278 229 152 224 338 1 3 357 350 351 348 347 343 343 352 11 16 13 10 10 10 6 0 9 15 13 11 12 11 3
259 277 245 247 194 211 225 237 234 254 286 295 289 304 315 75 88 22 7 6 357 352 350 355 359 356 353 0 1 8 15 7 2 358 357 357 1 359 352 358 3 354 353 343
220 243 262 265 233 221 230 245 244 257 276 306 345 349 316 34 43 40 24 11 4 360 358 5 9 360 6 10 8 10 1 352 348 347 347 348 349 341 339 340 343 337 344 346
225 238 246 254 230 289 266 255 328 289 273 302 333 276 273 28 34 35 34 32 21 14 14 14 7 7 22 12 8 353 340 336 336 339 337 332 334 332 333 329 329 331 334 336
229 241 255 270 301 102 205 252 3 358 333 326 295 253 316 47 44 45 41 33 27 28 25 14 6 11 18 12 354 338 336 337 341 342 332 330 338 338 333 337 338 337 333 333
216 232 246 84 123 193 231 22 29 17 15 1 340 346 34 67 58 46 43 34 28 27 20 15 13 16 15 2 349 349 344 344 345 344 340 343 344 339 341 342 337 334 335 333
210 224 261 106 136 54 31 16 340 335 346 347 313 312 342 49 51 49 45 30 21 18 16 15 13 13 5 349 352 350 350 346 342 342 344 346 341 340 342 345 337 331 332 325
251 249 225 196 68 357 359 336 332 330 315 270 263 267 283 69 43 33 34 26 17 11 4 0 2 7 2 354 355 352 345 342 343 346 347 347 338 337 332 327 327 325 315 311
246 260 269 235 223 237 304 353 354 354 356 321 261 277 277 320 1 360 5 16 15 355 339 341 350 353 357 360 3 351 337 338 339 342 338 332 329 314 306 294 289 294 288 288
239 229 234 254 235 205 218 242 242 260 326 347 300 274 301 303 331 357 351 2 352 337 327 327 334 335 348 354 359 347 332 332 328 326 328 326 324 321 314 311 312 313 311 308
248 261 250 257 259 205 209 219 215 209 234 281 322 336 299 294 325 0 344 342 321 312 313 320 323 321 329 335 336 320 302 305 307 310 311 313 312 314 317 322 316 314 317 319
238 212 231 232 215 180 186 177 84 61 347 281 307 7 335 303 317 308 293 298 306 305 302 306 307 301 312 318 307 289 283 283 285 286 285 284 288 291 293 303 313 311 315 316
259 232 215 190 139 73 77 85 94 261 261 304 78 241 253 259 267 278 290 306 306 292 291 298 295 294 307 299 284 272 270 273 276 280 284 279 280 282 282 284 287 298 310 311
217 141 169 201 229 232 199 199 231 253 256 256 259 264 267 262 268 278 284 290 283 280 284 285 280 283 289 274 273 263 255 269 276 271 275 275 272 272 275 277 281 285 288 293
167 219 222 227 236 242 237 233 234 247 250 248 250 258 272 275 278 280 286 285 269 271 272 269 274 282 275 256 252 257 258 261 261 259 255 259 260 259 263 268 272 275 275 283
209 222 214 216 226 238 248 244 241 242 239 243 240 231 237 241 256 269 283 296 295 287 276 269 273 276 267 257 246 246 248 248 244 244 250 254 257 256 255 260 265 272 281 291
207 217 222 225 230 227 236 242 243 241 240 221 220 237 245 249 255 266 277 280 274 277 279 270 283 294 277 262 254 237 244 249 252 250 247 252 257 253 252 256 262 268 275 279
224 224 228 242 242 226 233 242 238 242 240 220 223 245 260 262 261 265 268 263 252 253 267 277 280 274 270 269 274 252 245 247 250 254 254 252 253 256 255 257 260 265 267 266
241 239 238 243 258 257 243 233 227 240 245 225 224 239 255 267 263 254 262 274 273 247 257 262 262 264 264 264 262 249 242 244 246 249 251 254 256 258 258 258 260 262 264 266
259 253 252 252 254 270 267 245 233 239 245 243 242 244 255 268 270 264 250 250 270 278 276 268 263 263 266 266 257 253 249 246 248 249 249 250 251 256 258 259 261 262 263 264
272 263 260 255 251 265 279 260 238 234 238 239 240 241 246 255 256 258 275 263 261 274 279 271 275 278 277 267 257 254 251 250 251 250 250 250 250 252 256 259 260 261 263 264
281 278 273 271 256 265 274 273 257 248 246 251 247 241 242 259 269 251 252 270 275 280 276 270 275 280 281 270 262 260 256 254 254 255 255 254 254 254 255 257 260 261 262 263
269 267 264 257 255 258 263 280 282 270 264 266 266 255 244 238 248 268 271 268 272 279 278 276 279 281 277 265 261 259 258 255 255 255 256 259 259 257 257 257 258 261 262 262
273 265 259 251 252 261 269 268 269 273 278 287 289 281 271 263 260 269 274 273 271 273 273 273 271 270 265 262 261 260 260 262 261 258 256 258 260 261 263 263 261 261 263 264
277 270 271 278 272 261 258 257 262 270 269 268 282 285 282 281 278 275 274 276 277 275 274 273 271 267 266 265 265 264 263 262 261 261 261 261 261 262 264 265 267 267 266 267